Wallops Island, VA

10:18 PM EST on December 08, 2019 (GMT -0500)
Wallops Flight Facility

Weather History for KWAL - October, 2019

Change the Weather History Date:

Friday, October 18, 2019

  Actual Average Record
Temperature  
Mean Temperature 52 °F 58 °F  
Max Temperature 61 °F 67 °F 80 °F (2016)
Min Temperature 43 °F 49 °F 36 °F (1982)
Degree Days  
Heating Degree Days 13    
Month to date heating degree days 47  
Since 1 July heating degree days 56  
Cooling Degree Days 0    
Month to date cooling degree days 53  
Year to date cooling degree days 1800  
Growing Degree Days 2 (Base 50)    
Moisture  
Dew Point 39 °F    
Average Humidity 68    
Maximum Humidity 89    
Minimum Humidity 46    
Precipitation  
Precipitation 0.00 in 0.10 in 0.74 in (1997)
Month to date precipitation 2.65 1.83  
Year to date precipitation 36.98 33.20  
Sea Level Pressure  
Sea Level Pressure 29.93 in    
Wind  
Wind Speed 8 mph (WNW)    
Max Wind Speed 20 mph    
Max Gust Speed 25 mph    
Visibility 10 miles    
Events      
T = Trace of Precipitation, MM = Missing Value Source: NWS Daily Summary

Daily Weather History Graph

Daily Weather History Graph

Search for Another Location

Airport or City:

Astronomy

Oct. 18, 2019 Rise Set
Actual Time 7:13 AM EDT 6:20 PM EDT
Civil Twilight 6:46 AM EDT 6:47 PM EDT
Nautical Twilight 6:15 AM EDT 7:17 PM EDT
Astronomical Twilight 5:45 AM EDT 7:47 PM EDT
Moon 9:39 PM EDT (10/18) 11:39 AM EDT (10/18)
Length of Visible Light 12h 00m
Length of Day
11h 07m
Waning Gibbous, 79% of the Moon is Illuminated
Oct 18
Waning Gibbous
Oct 21
Last Quarter
Oct 27
New
Nov 4
First Quarter
Nov 12
Full

Hourly Weather History & Observations

Time (EDT) Temp. Windchill Dew Point Humidity Pressure Visibility Wind Dir Wind Speed Gust Speed Precip Events Conditions
12:54 AM 52.0 °F - 36.0 °F 54% 29.81 in 10.0 mi NW 16.1 mph 21.9 mph N/A   Clear
1:54 AM 51.1 °F - 37.0 °F 59% 29.82 in 10.0 mi WNW 6.9 mph - N/A   Clear
2:54 AM 50.0 °F - 37.0 °F 61% 29.81 in 10.0 mi NW 11.5 mph - N/A   Clear
3:54 AM 50.0 °F - 37.0 °F 61% 29.82 in 10.0 mi WNW 10.4 mph - N/A   Clear
4:54 AM 48.9 °F - 37.9 °F 66% 29.84 in 10.0 mi WNW 8.1 mph - N/A   Clear
5:54 AM 48.0 °F - 37.9 °F 68% 29.87 in 10.0 mi WNW 6.9 mph - N/A   Clear
6:54 AM 46.9 °F - 37.9 °F 71% 29.90 in 10.0 mi West 4.6 mph - N/A   Clear
7:54 AM 48.9 °F - 39.0 °F 69% 29.91 in 10.0 mi WNW 8.1 mph - N/A   Clear
8:54 AM 52.0 °F - 39.9 °F 63% 29.93 in 10.0 mi NW 12.7 mph 21.9 mph N/A   Partly Cloudy
9:54 AM 54.0 °F - 39.0 °F 57% 29.93 in 10.0 mi NW 11.5 mph 23.0 mph N/A   Partly Cloudy
10:54 AM 57.0 °F - 39.0 °F 51% 29.93 in 10.0 mi WNW 13.8 mph - N/A   Scattered Clouds
11:54 AM 59.0 °F - 39.0 °F 48% 29.92 in 10.0 mi WNW 12.7 mph 17.3 mph N/A   Partly Cloudy
12:54 PM 60.1 °F - 39.0 °F 46% 29.93 in 10.0 mi WNW 10.4 mph 19.6 mph N/A   Scattered Clouds
1:54 PM 59.0 °F - 39.0 °F 48% 29.93 in 10.0 mi NW 12.7 mph 21.9 mph N/A   Mostly Cloudy
2:54 PM 60.1 °F - 39.9 °F 47% 29.93 in 10.0 mi NW 9.2 mph - N/A   Scattered Clouds
3:54 PM 61.0 °F - 39.0 °F 44% 29.94 in 10.0 mi WNW 11.5 mph 19.6 mph N/A   Clear
4:54 PM 61.0 °F - 39.0 °F 44% 29.95 in 10.0 mi NNW 10.4 mph - N/A   Clear
5:54 PM 57.9 °F - 37.9 °F 47% 29.97 in 10.0 mi WNW 5.8 mph - N/A   Clear
6:54 PM 53.1 °F - 39.9 °F 61% 30.00 in 10.0 mi WSW 3.5 mph - N/A   Clear
7:54 PM 50.0 °F - 41.0 °F 71% 30.02 in 10.0 mi West 3.5 mph - N/A   Clear
8:54 PM 48.9 °F - 42.1 °F 77% 30.03 in 10.0 mi Calm Calm - N/A   Clear
9:54 PM 46.0 °F - 42.1 °F 86% 30.03 in 10.0 mi Calm Calm - N/A   Clear
10:54 PM 44.1 °F - 41.0 °F 89% 30.04 in 10.0 mi Calm Calm - N/A   Clear
11:54 PM 44.1 °F 41.5 °F 41.0 °F 89% 30.04 in 10.0 mi WNW 4.6 mph - N/A   Clear